Time,TemperatureF,DewpointF,PressureIn,WindDirection,WindDirectionDegrees,WindSpeedMPH,WindSpeedGustMPH,Humidity,HourlyPrecipIn,Conditions,Clouds,dailyrainin,SoftwareType,DateUTC
2013-04-04 06:40:00,52.5,49.3,29.91,North,-999,-999.0,-999.0,89,-99.99,,,-99.99,Netatmo,2013-04-04 04:40:00,
2013-04-04 09:02:00,56.1,52.0,29.90,North,-999,-999.0,-999.0,86,-99.99,,,-99.99,Netatmo,2013-04-04 07:02:00,
2013-04-04 09:18:00,56.8,52.4,29.90,North,-999,-999.0,-999.0,85,-99.99,,,-99.99,Netatmo,2013-04-04 07:18:00,
2013-04-04 09:25:00,56.8,52.4,29.90,North,-999,-999.0,-999.0,85,-99.99,,,-99.99,Netatmo,2013-04-04 07:25:00,
2013-04-04 09:38:00,57.2,52.1,29.91,North,-999,-999.0,-999.0,83,-99.99,,,-99.99,Netatmo,2013-04-04 07:38:00,
2013-04-04 09:45:00,57.2,52.1,29.91,North,-999,-999.0,-999.0,83,-99.99,,,-99.99,Netatmo,2013-04-04 07:45:00,
2013-04-04 14:01:00,63.0,53.2,29.87,North,-999,-999.0,-999.0,70,-99.99,,,-99.99,Netatmo,2013-04-04 12:01:00,
2013-04-04 14:07:00,63.0,53.2,29.87,North,-999,-999.0,-999.0,70,-99.99,,,-99.99,Netatmo,2013-04-04 12:07:00,
2013-04-04 14:11:00,62.6,53.2,29.85,North,-999,-999.0,-999.0,71,-99.99,,,-99.99,Netatmo,2013-04-04 12:11:00,
2013-04-04 14:17:00,62.6,53.2,29.85,North,-999,-999.0,-999.0,71,-99.99,,,-99.99,Netatmo,2013-04-04 12:17:00,
2013-04-04 14:21:00,63.0,53.6,29.85,North,-999,-999.0,-999.0,71,-99.99,,,-99.99,Netatmo,2013-04-04 12:21:00,
2013-04-04 14:27:00,63.0,53.6,29.85,North,-999,-999.0,-999.0,71,-99.99,,,-99.99,Netatmo,2013-04-04 12:27:00,
2013-04-04 14:37:00,63.1,53.0,29.85,North,-999,-999.0,-999.0,69,-99.99,,,-99.99,Netatmo,2013-04-04 12:37:00,
2013-04-04 14:42:00,63.1,53.0,29.85,North,-999,-999.0,-999.0,69,-99.99,,,-99.99,Netatmo,2013-04-04 12:42:00,
2013-04-04 14:46:00,63.3,53.1,29.85,North,-999,-999.0,-999.0,69,-99.99,,,-99.99,Netatmo,2013-04-04 12:46:00,
2013-04-04 14:52:00,63.3,53.1,29.85,North,-999,-999.0,-999.0,69,-99.99,,,-99.99,Netatmo,2013-04-04 12:52:00,
2013-04-04 14:56:00,63.5,52.9,29.85,North,-999,-999.0,-999.0,68,-99.99,,,-99.99,Netatmo,2013-04-04 12:56:00,
2013-04-04 15:02:00,63.5,52.9,29.85,North,-999,-999.0,-999.0,68,-99.99,,,-99.99,Netatmo,2013-04-04 13:02:00,
2013-04-04 15:06:00,64.0,53.0,29.84,North,-999,-999.0,-999.0,67,-99.99,,,-99.99,Netatmo,2013-04-04 13:06:00,
2013-04-04 15:12:00,64.0,53.0,29.84,North,-999,-999.0,-999.0,67,-99.99,,,-99.99,Netatmo,2013-04-04 13:12:00,